TimeMST,TemperatureF,Dew PointF,Humidity,Sea Level PressureIn,VisibilityMPH,Wind Direction,Wind SpeedMPH,Gust SpeedMPH,PrecipitationIn,Events,Conditions,WindDirDegrees,DateUTC
12:55 AM,21.9,18.0,85,29.84,10.0,East,5.8,-,N/A,,Clear,80,2013-02-26 07:55:00
1:55 AM,19.9,17.1,89,29.89,10.0,East,6.9,-,N/A,,Clear,80,2013-02-26 08:55:00
2:55 AM,19.9,17.1,89,29.88,10.0,East,6.9,-,N/A,,Clear,90,2013-02-26 09:55:00
3:55 AM,19.0,16.0,88,29.88,10.0,ENE,5.8,-,N/A,,Clear,70,2013-02-26 10:55:00
4:55 AM,18.0,16.0,92,29.90,10.0,NE,5.8,-,N/A,,Clear,50,2013-02-26 11:55:00
5:55 AM,17.1,14.0,88,29.91,10.0,Calm,Calm,-,N/A,,Clear,0,2013-02-26 12:55:00
6:55 AM,15.1,12.0,88,29.92,10.0,Calm,Calm,-,N/A,,Clear,0,2013-02-26 13:55:00
7:55 AM,19.9,17.1,89,29.93,10.0,West,3.5,-,N/A,,Clear,280,2013-02-26 14:55:00
8:55 AM,28.0,23.0,81,29.93,10.0,West,6.9,-,N/A,,Clear,270,2013-02-26 15:55:00
9:55 AM,34.0,25.0,70,29.93,10.0,Variable,3.5,-,N/A,,Clear,0,2013-02-26 16:55:00
10:55 AM,36.0,25.0,64,29.95,10.0,ENE,5.8,-,N/A,,Clear,60,2013-02-26 17:55:00
11:55 AM,41.0,27.0,57,29.94,10.0,ENE,8.1,-,N/A,,Clear,70,2013-02-26 18:55:00
12:55 PM,42.1,24.1,49,29.94,10.0,NE,4.6,-,N/A,,Clear,40,2013-02-26 19:55:00
1:55 PM,45.0,18.0,34,29.93,10.0,NNE,6.9,-,N/A,,Clear,20,2013-02-26 20:55:00
2:55 PM,46.0,18.0,33,29.94,10.0,NE,6.9,-,N/A,,Clear,40,2013-02-26 21:55:00
3:55 PM,46.0,16.0,30,29.96,10.0,NNE,6.9,-,N/A,,Clear,20,2013-02-26 22:55:00
4:55 PM,39.9,27.0,60,29.99,10.0,East,8.1,-,N/A,,Clear,100,2013-02-26 23:55:00
5:55 PM,30.0,23.0,75,30.03,10.0,East,4.6,-,N/A,,Clear,90,2013-02-27 00:55:00
6:55 PM,32.0,24.1,73,30.06,10.0,Calm,Calm,-,N/A,,Overcast,0,2013-02-27 01:55:00
7:55 PM,32.0,25.0,75,30.06,10.0,NW,4.6,-,N/A,,Overcast,320,2013-02-27 02:55:00
8:55 PM,37.9,28.9,70,30.08,10.0,North,19.6,31.1,N/A,,Overcast,350,2013-02-27 03:55:00
9:55 PM,35.1,26.1,70,30.09,10.0,North,20.7,29.9,N/A,,Overcast,350,2013-02-27 04:55:00
10:55 PM,34.0,25.0,70,30.11,10.0,North,21.9,29.9,N/A,,Overcast,350,2013-02-27 05:55:00
11:55 PM,33.1,25.0,72,30.13,10.0,NNW,12.7,21.9,N/A,,Overcast,340,2013-02-27 06:55:00